Weather History for Cadillac, MI

Change the Weather History Date:

Saturday, February 9, 2013

  Actual Average Record
Temperature  
Mean Temperature 10 °F -  
Max Temperature 28 °F 25 °F 75 °F (1997)
Min Temperature -9 °F 6 °F -32 °F (1951)
Degree Days  
Heating Degree Days 56    
Moisture  
Dew Point 3 °F    
Average Humidity 72    
Maximum Humidity 85    
Minimum Humidity 52    
Precipitation  
Precipitation 0.00 in - - ()
Sea Level Pressure  
Sea Level Pressure 30.26 in    
Wind  
Wind Speed 2 mph (SSE)    
Max Wind Speed 10 mph    
Max Gust Speed -    
Visibility 9 miles    
Events Fog    
Averages and records for this station are not official NWS values.
T = Trace of Precipitation, MM = Missing Value Source: NWS Daily Summary

Daily Weather History Graph

Daily Weather History Graph

Search for Another Location

Airport:

Trip Planner

Search our weather history database for the weather conditions in past years. The results will help you decide how hot, cold, wet, or windy it might be!

Date:

Astronomy

Feb. 09, 2013 Rise Set
Actual Time 7:49 AM EST 6:02 PM EST
Civil Twilight 7:19 AM EST 6:33 PM EST
Nautical Twilight 6:45 AM EST 7:07 PM EST
Astronomical Twilight 6:11 AM EST 7:41 PM EST
Moon 7:00 AM EST (2/9) 5:46 PM EST (2/9)
Length of Visible Light 11h 13m
Length of Day
10h 13m
Waning Crescent, 0% of the Moon is Illuminated
Feb 9
Waning Crescent
Feb 10
New
Feb 17
First Quarter
Feb 25
Full
Mar 4
Last Quarter

Hourly Weather History & Observations

Time (EST) Temp. Windchill Dew Point Humidity Pressure Visibility Wind Dir Wind Speed Gust Speed Precip Events Conditions
12:15 AM -1.5 °F - -6.5 °F 79% 30.31 in 5.0 mi Calm Calm - N/A   Haze
12:34 AM -3.1 °F - -7.2 °F 82% 30.32 in 10.0 mi Calm Calm - N/A   Clear
12:55 AM -1.1 °F - -5.8 °F 81% 30.33 in 10.0 mi Calm Calm - N/A   Clear
1:15 AM -4.0 °F - -9.2 °F 78% 30.33 in 10.0 mi Calm Calm - N/A   Clear
1:34 AM -4.0 °F - -9.4 °F 78% 30.32 in 10.0 mi Calm Calm - N/A   Clear
1:55 AM -3.8 °F - -9.4 °F 77% 30.32 in 7.0 mi Calm Calm - N/A   Clear
2:15 AM -6.9 °F - -12.5 °F 77% 30.32 in 10.0 mi Calm Calm - N/A   Clear
2:34 AM -4.0 °F - -9.4 °F 78% 30.32 in 10.0 mi Calm Calm - N/A   Scattered Clouds
2:55 AM -6.3 °F - -11.4 °F 79% 30.32 in 10.0 mi Calm Calm - N/A   Mostly Cloudy
3:15 AM -6.7 °F - -11.7 °F 79% 30.32 in 10.0 mi Calm Calm - N/A   Scattered Clouds
3:34 AM -5.4 °F - -11.0 °F 77% 30.32 in 10.0 mi Calm Calm - N/A   Clear
3:55 AM -6.9 °F - -12.3 °F 77% 30.32 in 3.0 mi Calm Calm - N/A   Haze
4:15 AM -6.5 °F - -11.6 °F 79% 30.32 in 7.0 mi Calm Calm - N/A   Overcast
4:35 AM -4.0 °F - -9.8 °F 76% 30.32 in 10.0 mi Calm Calm - N/A   Overcast
4:55 AM -6.7 °F - -12.1 °F 77% 30.32 in 4.0 mi Calm Calm - N/A   Haze
5:15 AM -5.4 °F - -9.4 °F 83% 30.33 in 0.2 mi Calm Calm - N/A Fog Light Freezing Fog
5:35 AM -6.7 °F - -11.4 °F 80% 30.33 in 0.5 mi Calm Calm - N/A Fog Light Freezing Fog
5:55 AM -4.2 °F - -9.2 °F 79% 30.33 in 0.2 mi Calm Calm - N/A   Haze
6:15 AM -6.9 °F - -12.1 °F 78% 30.33 in 5.0 mi Calm Calm - N/A   Haze
6:35 AM -6.7 °F - -12.1 °F 77% 30.33 in 7.0 mi Calm Calm - N/A   Clear
6:55 AM -6.9 °F - -12.5 °F 77% 30.33 in 7.0 mi Calm Calm - N/A   Clear
7:14 AM -6.9 °F - -12.3 °F 77% 30.33 in 10.0 mi Calm Calm - N/A   Clear
7:35 AM -6.9 °F - -13.2 °F 74% 30.34 in 10.0 mi Calm Calm - N/A   Clear
7:55 AM -9.0 °F - -14.8 °F 76% 30.33 in 10.0 mi Calm Calm - N/A   Clear
8:14 AM -6.7 °F - -11.9 °F 78% 30.33 in 2.0 mi Calm Calm - N/A   Haze
8:35 AM -6.7 °F - -12.3 °F 77% 30.34 in 7.0 mi Calm Calm - N/A   Clear
8:55 AM -4.0 °F - -9.9 °F 76% 30.34 in 10.0 mi Calm Calm - N/A   Clear
9:14 AM -4.0 °F - -9.9 °F 76% 30.34 in 10.0 mi Calm Calm - N/A   Clear
9:35 AM -2.9 °F - -7.8 °F 80% 30.33 in 10.0 mi Calm Calm - N/A   Clear
9:55 AM 0.5 °F - -4.7 °F 79% 30.32 in 10.0 mi Calm Calm - N/A   Clear
10:14 AM 2.3 °F - -2.9 °F 79% 30.32 in 10.0 mi Calm Calm - N/A   Clear
10:35 AM 8.4 °F - 4.3 °F 83% 30.32 in 10.0 mi Calm Calm - N/A   Clear
10:55 AM 13.8 °F - 10.0 °F 85% 30.32 in 10.0 mi Calm Calm - N/A   Clear
11:14 AM 18.9 °F 9.8 °F 14.0 °F 81% 30.32 in 10.0 mi SSW 6.9 mph - N/A   Clear
11:35 AM 19.4 °F 9.5 °F 14.0 °F 80% 30.32 in 10.0 mi South 8.1 mph - N/A   Clear
11:55 AM 21.2 °F 10.1 °F 14.4 °F 75% 30.30 in 10.0 mi South 10.4 mph - N/A   Clear
12:15 PM 22.6 °F 12.6 °F 14.7 °F 72% 30.29 in 10.0 mi South 9.2 mph - N/A   Clear
12:35 PM 23.0 °F 13.1 °F 13.6 °F 67% 30.28 in 10.0 mi South 9.2 mph - N/A   Clear
12:54 PM 23.7 °F 14.0 °F 14.0 °F 66% 30.27 in 10.0 mi SSE 9.2 mph - N/A   Clear
1:15 PM 23.9 °F 14.2 °F 13.3 °F 64% 30.26 in 10.0 mi South 9.2 mph - N/A   Clear
1:35 PM 24.6 °F 15.1 °F 13.1 °F 62% 30.25 in 10.0 mi South 9.2 mph - N/A   Clear
1:54 PM 26.1 °F 17.6 °F 14.0 °F 60% 30.25 in 10.0 mi South 8.1 mph - N/A   Clear
2:15 PM 26.4 °F 17.3 °F 13.5 °F 58% 30.24 in 10.0 mi South 9.2 mph - N/A   Clear
2:35 PM 27.5 °F 19.3 °F 14.4 °F 58% 30.23 in 10.0 mi South 8.1 mph - N/A   Clear
2:55 PM 28.9 °F 20.4 °F 14.9 °F 56% 30.23 in 10.0 mi SSE 9.2 mph - N/A   Clear
3:15 PM 28.9 °F 20.4 °F 13.5 °F 52% 30.22 in 10.0 mi SSE 9.2 mph - N/A   Clear
3:35 PM 27.5 °F 20.2 °F 13.6 °F 56% 30.23 in 10.0 mi SSE 6.9 mph - N/A   Clear
3:55 PM 28.9 °F 22.8 °F 13.8 °F 53% 30.22 in 10.0 mi SE 5.8 mph - N/A   Clear
4:15 PM 28.9 °F 22.8 °F 13.8 °F 53% 30.23 in 10.0 mi SSE 5.8 mph - N/A   Clear
4:35 PM 28.9 °F 21.1 °F 14.0 °F 54% 30.21 in 10.0 mi SSE 8.1 mph - N/A   Clear
4:55 PM 28.9 °F 20.4 °F 14.0 °F 54% 30.20 in 10.0 mi SSE 9.2 mph - N/A   Clear
5:15 PM 28.2 °F 23.1 °F 14.4 °F 56% 30.20 in 10.0 mi SE 4.6 mph - N/A   Clear
5:34 PM 26.4 °F 18.0 °F 13.8 °F 59% 30.20 in 10.0 mi SE 8.1 mph - N/A   Scattered Clouds
5:55 PM 25.0 °F 16.3 °F 13.8 °F 63% 30.19 in 10.0 mi SE 8.1 mph - N/A   Clear
6:15 PM 24.6 °F 15.1 °F 14.0 °F 64% 30.19 in 10.0 mi SE 9.2 mph - N/A   Scattered Clouds
6:34 PM 23.9 °F 13.5 °F 14.0 °F 66% 30.19 in 10.0 mi SE 10.4 mph - N/A   Clear
6:55 PM 22.6 °F 12.6 °F 13.6 °F 68% 30.19 in 10.0 mi SE 9.2 mph - N/A   Clear
7:15 PM 22.5 °F 13.2 °F 14.0 °F 70% 30.19 in 10.0 mi SE 8.1 mph - N/A   Clear
7:34 PM 21.2 °F 11.7 °F 13.5 °F 72% 30.18 in 10.0 mi SSE 8.1 mph - N/A   Clear
7:55 PM 21.2 °F 12.6 °F 13.6 °F 73% 30.18 in 10.0 mi SSE 6.9 mph - N/A   Clear
8:34 PM 21.2 °F 16.4 °F 14.0 °F 74% 30.18 in 10.0 mi SE 3.5 mph - N/A   Scattered Clouds
8:55 PM 21.2 °F 16.4 °F 14.5 °F 75% 30.18 in 10.0 mi SE 3.5 mph - N/A   Mostly Cloudy
9:15 PM 21.2 °F 14.9 °F 14.4 °F 75% 30.17 in 10.0 mi SSE 4.6 mph - N/A   Mostly Cloudy
9:35 PM 21.2 °F 13.6 °F 14.0 °F 74% 30.17 in 10.0 mi SE 5.8 mph - N/A   Overcast
9:55 PM 21.2 °F 13.6 °F 13.8 °F 73% 30.16 in 10.0 mi SE 5.8 mph - N/A   Overcast
10:15 PM 21.2 °F 12.6 °F 13.6 °F 73% 30.15 in 10.0 mi SSE 6.9 mph - N/A   Mostly Cloudy
10:35 PM 21.2 °F 13.6 °F 13.8 °F 73% 30.16 in 10.0 mi SSE 5.8 mph - N/A   Mostly Cloudy
10:55 PM 21.2 °F 13.6 °F 14.0 °F 74% 30.15 in 10.0 mi SSE 5.8 mph - N/A   Overcast
11:15 PM 21.2 °F 12.6 °F 14.0 °F 74% 30.15 in 10.0 mi SSE 6.9 mph - N/A   Mostly Cloudy
11:35 PM 21.2 °F 13.6 °F 14.0 °F 74% 30.14 in 10.0 mi SSE 5.8 mph - N/A   Scattered Clouds
11:55 PM 21.2 °F 13.6 °F 14.2 °F 74% 30.14 in 10.0 mi SSE 5.8 mph - N/A   Mostly Cloudy